DW4221 Weather Reports


time (UTC)temp
C
wind
direction
speed
KPH
gust
KPH
rain 1hr
cm
rain 24hr
cm
rain mn
cm
humidity
%
barometer
mb
20260502230053 15 248 3.2 11.3 0.00 0.00 0.00 39 1008.7
20260502224550 16 232 1.6 11.3 0.00 0.00 0.00 39 1008.7
20260502223051 16 0 3.2 17.7 0.00 0.00 0.00 38 1008.6
20260502221551 16 219 1.6 20.9 0.00 0.00 0.00 37 1008.9
20260502220055 16 238 4.8 17.7 0.00 0.00 0.00 35 1008.9
20260502214554 16 241 6.4 20.9 0.00 0.00 0.00 37 1009.4
20260502213051 15 201 3.2 16.1 0.00 0.00 0.00 37 1009.4
20260502211551 15 214 8.0 17.7 0.00 0.00 0.00 38 1009.5
20260502210054 15 261 4.8 22.5 0.00 0.00 0.00 36 1009.9
20260502204609 15 245 4.8 16.1 0.00 0.00 0.00 37 1010.1
20260502203113 16 242 4.8 14.5 0.00 0.00 0.00 35 1010.2
20260502201552 15 236 3.2 17.7 0.00 0.00 0.00 36 1010.8
20260502200052 15 234 4.8 20.9 0.00 0.00 0.00 36 1011.0
20260502194554 15 288 6.4 17.7 0.00 0.00 0.00 35 1011.2
20260502193051 15 250 4.8 14.5 0.00 0.00 0.00 35 1011.4
20260502191558 15 284 3.2 14.5 0.00 0.00 0.00 37 1011.8
20260502190054 14 210 6.4 20.9 0.00 0.00 0.00 38 1012.0
20260502184600 13 327 4.8 20.9 0.00 0.00 0.00 38 1012.1
20260502183052 13 231 3.2 16.1 0.00 0.00 0.00 38 1012.5
20260502181611 13 0 4.8 19.3 0.00 0.00 0.00 35 1012.8
20260502163104 12 279 1.6 16.1 0.00 0.00 0.00 36 1014.6
20260502161559 11 182 3.2 17.7 0.00 0.00 0.00 39 1014.8
20260502151606 9 198 1.6 12.9 0.00 0.00 0.00 41 1015.7
20260502140105 6 200 1.6 6.4 0.00 0.00 0.00 58 1016.7
20260502123053 0 0 0.0 0.0 0.00 0.00 0.00 89 1017.1
20260502121555 -2 0 0.0 0.0 0.00 0.00 0.00 92 1017.1
20260502120106 -3 0 0.0 0.0 0.00 0.00 0.00 90 1017.3
20260502114559 -3 0 0.0 0.0 0.00 0.00 0.00 93 1017.3
20260502113053 -5 0 0.0 0.0 0.00 0.00 0.00 93 1017.4
20260502111551 -5 0 0.0 0.0 0.00 0.00 0.00 92 1017.1
20260502110058 -5 0 0.0 0.0 0.00 0.00 0.00 91 1017.2
20260502104550 -5 0 0.0 0.0 0.00 0.00 0.00 91 1017.2
20260502103059 -4 0 0.0 0.0 0.00 0.00 0.00 91 1017.1
20260502101552 -4 0 0.0 0.0 0.00 0.00 0.00 92 1017.4
20260502080104 -3 0 0.0 0.0 0.00 0.00 0.00 86 1017.5
20260502070056 -2 0 0.0 0.0 0.00 0.00 0.00 85 1017.9
20260502064602 -2 0 0.0 0.0 0.00 0.00 0.00 84 1018.1
20260502063058 -2 0 0.0 0.0 0.00 0.00 0.00 84 1018.3
20260502061551 -2 0 0.0 0.0 0.00 0.00 0.00 83 1018.4
20260502060054 -2 0 0.0 0.0 0.00 0.00 0.00 82 1018.4
20260502054559 -2 0 0.0 0.0 0.00 0.00 0.00 81 1018.6
20260502053056 -1 0 0.0 0.0 0.00 0.00 0.00 80 1018.4
20260502051552 -1 0 0.0 0.0 0.00 0.00 0.00 80 1018.4
20260502050051 -1 0 0.0 0.0 0.00 0.00 0.00 79 1018.3
20260502044551 -1 0 0.0 0.0 0.00 0.00 0.00 78 1018.2
20260502043056 -1 0 0.0 0.0 0.00 0.00 0.00 77 1018.3
20260502041552 0 0 0.0 0.0 0.00 0.00 0.00 73 1018.3
20260502040104 0 0 0.0 0.0 0.00 0.00 0.00 73 1018.4
20260502034554 0 0 0.0 0.0 0.00 0.00 0.00 70 1018.2
20260502033054 0 0 0.0 0.0 0.00 0.00 0.00 70 1018.3
20260502031555 1 0 0.0 0.0 0.00 0.00 0.00 67 1018.4
20260502030051 1 0 0.0 4.8 0.00 0.00 0.00 66 1018.2
20260502024550 2 0 0.0 0.0 0.00 0.00 0.00 61 1018.2
20260502023054 3 0 0.0 0.0 0.00 0.00 0.00 58 1018.2
20260502021553 3 0 0.0 0.0 0.00 0.00 0.00 55 1018.2
20260502020108 5 0 0.0 0.0 0.00 0.00 0.00 50 1018.1
20260502014554 5 0 0.0 0.0 0.00 0.00 0.00 48 1018.1
20260502013052 6 0 0.0 3.2 0.00 0.00 0.00 43 1017.9
20260502011554 7 355 1.6 4.8 0.00 0.00 0.00 41 1017.9
20260502010055 7 12 0.0 8.0 0.00 0.00 0.00 38 1017.8
20260502004556 8 18 1.6 8.0 0.00 0.00 0.00 38 1017.6
20260502003132 8 11 3.2 8.0 0.00 0.00 0.00 37 1017.7
20260502001632 9 32 6.4 17.7 0.00 0.00 0.00 36 1017.6
20260502000055 9 43 4.8 17.7 0.00 0.00 0.00 36 1017.7
20260501234600 9 284 1.6 16.1 0.00 0.00 0.00 36 1017.6
20260501233058 10 129 3.2 12.9 0.00 0.00 0.00 36 1017.5
20260501231554 10 22 8.0 19.3 0.00 0.00 0.00 36 1017.9